Time,TemperatureF,DewpointF,PressureIn,WindDirection,WindDirectionDegrees,WindSpeedMPH,WindSpeedGustMPH,Humidity,HourlyPrecipIn,Conditions,Clouds,dailyrainin,SoftwareType,DateUTC
2013-06-25 00:11:00,76.0,68.0,-100.00,NNW,340,7.0,11.0,75,0.00,,,-99.99,,2013-06-25 04:11:00,
2013-06-25 01:01:00,76.0,69.0,-100.00,North,0,7.0,13.0,78,0.00,,,-99.99,,2013-06-25 05:01:00,
2013-06-25 01:11:00,76.0,69.0,-100.00,NNW,345,6.0,11.0,79,0.00,,,-99.99,,2013-06-25 05:11:00,
2013-06-25 01:44:00,75.0,69.0,-100.00,North,0,6.0,12.0,82,0.00,,,-99.99,,2013-06-25 05:44:00,
2013-06-25 02:01:00,75.0,69.0,-100.00,NNW,340,7.0,9.0,82,0.00,,,-99.99,,2013-06-25 06:01:00,
2013-06-25 02:22:00,75.0,69.0,-100.00,North,350,4.0,12.0,82,0.00,,,-99.99,,2013-06-25 06:22:00,
2013-06-25 02:33:00,75.0,69.0,-100.00,North,350,4.0,12.0,82,0.00,,,-99.99,,2013-06-25 06:33:00,
2013-06-25 02:43:00,74.0,69.0,-100.00,North,0,6.0,14.0,83,0.00,,,-99.99,,2013-06-25 06:43:00,
2013-06-25 02:52:00,74.0,69.0,-100.00,NNW,335,7.0,11.0,83,0.00,,,-99.99,,2013-06-25 06:52:00,
2013-06-25 03:02:00,74.0,69.0,-100.00,NNW,340,7.0,11.0,84,0.00,,,-99.99,,2013-06-25 07:02:00,
2013-06-25 03:33:00,74.0,69.0,-100.00,NNW,335,7.0,10.0,86,0.00,,,-99.99,,2013-06-25 07:33:00,
2013-06-25 03:43:00,74.0,69.0,-100.00,North,350,7.0,10.0,86,0.00,,,-99.99,,2013-06-25 07:43:00,
2013-06-25 04:22:00,74.0,69.0,-100.00,North,0,5.0,11.0,85,0.00,,,-99.99,,2013-06-25 08:22:00,
2013-06-25 04:43:00,74.0,69.0,-100.00,North,355,6.0,10.0,85,0.00,,,-99.99,,2013-06-25 08:43:00,
2013-06-25 05:12:00,74.0,69.0,-100.00,North,0,6.0,10.0,85,0.00,,,-99.99,,2013-06-25 09:12:00,
2013-06-25 05:22:00,74.0,69.0,-100.00,North,0,6.0,10.0,84,0.00,,,-99.99,,2013-06-25 09:22:00,
2013-06-25 05:33:00,73.0,69.0,-100.00,North,355,4.0,7.0,85,0.00,,,-99.99,,2013-06-25 09:33:00,
2013-06-25 05:43:00,73.0,68.0,-100.00,NNE,15,3.0,9.0,84,0.00,,,-99.99,,2013-06-25 09:43:00,
2013-06-25 06:11:00,73.0,68.0,-100.00,NNE,20,3.0,7.0,82,0.00,,,-99.99,,2013-06-25 10:11:00,
2013-06-25 06:21:00,73.0,67.0,-100.00,NNE,15,6.0,7.0,82,0.00,,,-99.99,,2013-06-25 10:21:00,
2013-06-25 06:33:00,73.0,67.0,-100.00,NNE,15,3.0,9.0,82,0.00,,,-99.99,,2013-06-25 10:33:00,
2013-06-25 06:42:00,73.0,67.0,-100.00,NNE,15,4.0,9.0,79,0.00,,,-99.99,,2013-06-25 10:42:00,
2013-06-25 07:02:00,74.0,67.0,-100.00,NNE,20,4.0,9.0,78,0.00,,,-99.99,,2013-06-25 11:02:00,
2013-06-25 07:12:00,74.0,66.0,-100.00,NNE,25,6.0,9.0,75,0.00,,,-99.99,,2013-06-25 11:12:00,
2013-06-25 07:22:00,74.0,66.0,-100.00,NNE,25,6.0,10.0,74,0.00,,,-99.99,,2013-06-25 11:22:00,
2013-06-25 07:34:00,74.0,65.0,-100.00,NNE,15,4.0,11.0,74,0.00,,,-99.99,,2013-06-25 11:34:00,
2013-06-25 07:43:00,74.0,65.0,-100.00,NNE,20,6.0,10.0,73,0.00,,,-99.99,,2013-06-25 11:43:00,
2013-06-25 08:22:00,75.0,67.0,-100.00,North,10,5.0,11.0,76,0.00,,,-99.99,,2013-06-25 12:22:00,
2013-06-25 08:43:00,74.0,69.0,-100.00,NE,35,7.0,14.0,83,0.00,,,-99.99,,2013-06-25 12:43:00,
2013-06-25 08:55:00,74.0,69.0,-100.00,NE,35,7.0,14.0,83,0.00,,,-99.99,,2013-06-25 12:55:00,
2013-06-25 09:02:00,74.0,69.0,-100.00,NNE,30,6.0,13.0,84,0.00,,,-99.99,,2013-06-25 13:02:00,
2013-06-25 09:12:00,75.0,70.0,-100.00,NNE,15,6.0,12.0,82,0.00,,,-99.99,,2013-06-25 13:12:00,
2013-06-25 09:22:00,76.0,70.0,-100.00,NNE,25,9.0,17.0,80,0.00,,,-99.99,,2013-06-25 13:22:00,
2013-06-25 09:34:00,76.0,70.0,-100.00,NNE,25,9.0,17.0,80,0.00,,,-99.99,,2013-06-25 13:34:00,
2013-06-25 09:42:00,75.0,70.0,-100.00,NNE,30,9.0,21.0,82,0.00,,,-99.99,,2013-06-25 13:42:00,
2013-06-25 11:02:00,76.0,71.0,-100.00,NE,35,9.0,23.0,84,0.00,,,-99.99,,2013-06-25 15:02:00,
2013-06-25 11:32:00,79.0,71.0,-100.00,North,10,4.0,13.0,75,0.00,,,-99.99,,2013-06-25 15:32:00,
2013-06-25 11:44:00,81.0,69.0,-100.00,NE,35,5.0,15.0,67,0.00,,,-99.99,,2013-06-25 15:44:00,
2013-06-25 12:03:00,81.0,67.0,-100.00,NNE,25,11.0,19.0,63,0.00,,,-99.99,,2013-06-25 16:03:00,
2013-06-25 12:12:00,81.0,67.0,-100.00,NNE,25,11.0,19.0,63,0.00,,,-99.99,,2013-06-25 16:12:00,
2013-06-25 12:23:00,82.0,67.0,-100.00,NNE,25,9.0,17.0,60,0.00,,,-99.99,,2013-06-25 16:23:00,
2013-06-25 12:35:00,83.0,68.0,-100.00,NNE,25,9.0,13.0,60,0.00,,,-99.99,,2013-06-25 16:35:00,
2013-06-25 12:44:00,83.0,68.0,-100.00,NNE,25,7.0,16.0,61,0.00,,,-99.99,,2013-06-25 16:44:00,
2013-06-25 12:52:00,83.0,68.0,-100.00,North,5,6.0,12.0,60,0.00,,,-99.99,,2013-06-25 16:52:00,
2013-06-25 13:01:00,84.0,67.0,-100.00,North,10,7.0,14.0,56,0.00,,,-99.99,,2013-06-25 17:01:00,
2013-06-25 13:11:00,85.0,67.0,-100.00,NNE,25,7.0,14.0,54,0.00,,,-99.99,,2013-06-25 17:11:00,
2013-06-25 13:22:00,85.0,67.0,-100.00,NNE,25,7.0,14.0,54,0.00,,,-99.99,,2013-06-25 17:22:00,
2013-06-25 13:33:00,86.0,66.0,-100.00,NNE,15,6.0,10.0,51,0.00,,,-99.99,,2013-06-25 17:33:00,
2013-06-25 13:44:00,87.0,65.0,-100.00,NNE,20,4.0,17.0,47,0.00,,,-99.99,,2013-06-25 17:44:00,
2013-06-25 14:02:00,88.0,65.0,-100.00,NNE,30,4.0,16.0,47,0.00,,,-99.99,,2013-06-25 18:02:00,
2013-06-25 14:12:00,87.0,65.0,-100.00,NE,35,7.0,13.0,48,0.00,,,-99.99,,2013-06-25 18:12:00,
2013-06-25 14:23:00,88.0,65.0,-100.00,NNE,15,7.0,13.0,46,0.00,,,-99.99,,2013-06-25 18:23:00,
2013-06-25 14:34:00,89.0,67.0,-100.00,NNE,25,6.0,14.0,47,0.00,,,-99.99,,2013-06-25 18:34:00,
2013-06-25 14:44:00,88.0,65.0,-100.00,NNE,25,10.0,16.0,46,0.00,,,-99.99,,2013-06-25 18:44:00,
2013-06-25 14:52:00,88.0,66.0,-100.00,NNE,25,6.0,12.0,49,0.00,,,-99.99,,2013-06-25 18:52:00,
2013-06-25 15:12:00,87.0,67.0,-100.00,NNE,20,6.0,10.0,51,0.00,,,-99.99,,2013-06-25 19:12:00,
2013-06-25 15:22:00,87.0,67.0,-100.00,NNE,30,7.0,12.0,52,0.00,,,-99.99,,2013-06-25 19:22:00,
2013-06-25 15:33:00,87.0,68.0,-100.00,NNE,20,6.0,11.0,54,0.00,,,-99.99,,2013-06-25 19:33:00,
2013-06-25 15:44:00,86.0,69.0,-100.00,ENE,65,4.0,12.0,57,0.00,,,-99.99,,2013-06-25 19:44:00,
2013-06-25 16:11:00,88.0,71.0,-100.00,NE,45,6.0,12.0,57,0.00,,,-99.99,,2013-06-25 20:11:00,
2013-06-25 16:22:00,87.0,69.0,-100.00,NNE,25,6.0,18.0,55,0.00,,,-99.99,,2013-06-25 20:22:00,
2013-06-25 16:33:00,89.0,71.0,-100.00,ENE,70,6.0,12.0,55,0.00,,,-99.99,,2013-06-25 20:33:00,
2013-06-25 16:42:00,87.0,70.0,-100.00,NE,55,6.0,13.0,57,0.00,,,-99.99,,2013-06-25 20:42:00,
2013-06-25 16:52:00,87.0,70.0,-100.00,NE,55,6.0,13.0,57,0.00,,,-99.99,,2013-06-25 20:52:00,
2013-06-25 17:01:00,87.0,70.0,-100.00,NE,55,6.0,13.0,57,0.00,,,-99.99,,2013-06-25 21:01:00,
2013-06-25 17:43:00,69.0,67.0,-100.00,WNW,300,6.0,7.0,96,0.00,,,-99.99,,2013-06-25 21:43:00,
2013-06-25 18:10:00,69.0,68.0,-100.00,WNW,295,6.0,7.0,97,0.00,,,-99.99,,2013-06-25 22:10:00,
2013-06-25 18:22:00,68.0,68.0,-100.00,WNW,295,7.0,11.0,97,0.00,,,-99.99,,2013-06-25 22:22:00,
2013-06-25 18:34:00,69.0,68.0,-100.00,WNW,295,6.0,7.0,97,0.00,,,-99.99,,2013-06-25 22:34:00,
2013-06-25 18:42:00,69.0,68.0,-100.00,WNW,295,6.0,7.0,97,0.00,,,-99.99,,2013-06-25 22:42:00,
2013-06-25 18:52:00,69.0,68.0,-100.00,WNW,295,6.0,7.0,97,0.00,,,-99.99,,2013-06-25 22:52:00,
2013-06-25 19:01:00,69.0,68.0,-100.00,WNW,295,6.0,7.0,97,0.00,,,-99.99,,2013-06-25 23:01:00,
2013-06-25 19:34:00,69.0,68.0,-100.00,NW,310,7.0,12.0,97,0.00,,,-99.99,,2013-06-25 23:34:00,
2013-06-25 19:44:00,69.0,68.0,-100.00,NW,320,5.0,13.0,97,0.00,,,-99.99,,2013-06-25 23:44:00,
2013-06-25 19:52:00,69.0,68.0,-100.00,NW,320,5.0,13.0,97,0.00,,,-99.99,,2013-06-25 23:52:00,
2013-06-25 20:00:00,69.0,68.0,-100.00,NNW,335,6.0,7.0,97,0.00,,,-99.99,,2013-06-26 00:00:00,
2013-06-25 20:02:00,69.0,68.0,-100.00,NW,325,7.0,12.0,97,0.00,,,-99.99,,2013-06-26 00:02:00,
2013-06-25 20:11:00,69.0,68.0,-100.00,NW,325,7.0,12.0,97,0.00,,,-99.99,,2013-06-26 00:11:00,
2013-06-25 20:22:00,69.0,68.0,-100.00,NNW,335,6.0,7.0,97,0.00,,,-99.99,,2013-06-26 00:22:00,
2013-06-25 20:33:00,69.0,68.0,-100.00,NNW,335,6.0,7.0,97,0.00,,,-99.99,,2013-06-26 00:33:00,
2013-06-25 20:42:00,69.0,68.0,-100.00,NNW,335,6.0,7.0,97,0.00,,,-99.99,,2013-06-26 00:42:00,
2013-06-25 20:50:00,70.0,69.0,-100.00,NNE,30,11.0,21.0,95,0.00,,,-99.99,,2013-06-26 00:50:00,
2013-06-25 20:53:00,69.0,68.0,-100.00,NNW,335,6.0,7.0,97,0.00,,,-99.99,,2013-06-26 00:53:00,
2013-06-25 21:11:00,70.0,69.0,-100.00,NNE,30,11.0,21.0,95,0.00,,,-99.99,,2013-06-26 01:11:00,
2013-06-25 21:22:00,70.0,69.0,-100.00,NNE,30,11.0,21.0,95,0.00,,,-99.99,,2013-06-26 01:22:00,
2013-06-25 21:33:00,70.0,69.0,-100.00,NNE,30,11.0,21.0,95,0.00,,,-99.99,,2013-06-26 01:33:00,
2013-06-25 21:43:00,70.0,69.0,-100.00,NNE,30,11.0,21.0,95,0.00,,,-99.99,,2013-06-26 01:43:00,
2013-06-25 22:22:00,68.0,67.0,-100.00,North,10,1.0,2.0,97,0.00,,,-99.99,,2013-06-26 02:22:00,
2013-06-25 22:34:00,68.0,67.0,-100.00,North,10,1.0,2.0,97,0.00,,,-99.99,,2013-06-26 02:34:00,
2013-06-25 22:43:00,68.0,67.0,-100.00,NW,310,4.0,9.0,97,0.00,,,-99.99,,2013-06-26 02:43:00,
2013-06-25 22:53:00,68.0,67.0,-100.00,NW,310,4.0,9.0,97,0.00,,,-99.99,,2013-06-26 02:53:00,
2013-06-25 23:10:00,68.0,67.0,-100.00,NNW,335,6.0,9.0,97,0.00,,,-99.99,,2013-06-26 03:10:00,
2013-06-25 23:11:00,68.0,67.0,-100.00,WNW,300,6.0,8.0,97,0.00,,,-99.99,,2013-06-26 03:11:00,
2013-06-25 23:22:00,68.0,67.0,-100.00,WNW,300,6.0,8.0,97,0.00,,,-99.99,,2013-06-26 03:22:00,
2013-06-25 23:33:00,68.0,67.0,-100.00,NNW,330,7.0,12.0,97,0.00,,,-99.99,,2013-06-26 03:33:00,
2013-06-25 23:43:00,68.0,67.0,-100.00,NNW,335,6.0,9.0,97,0.00,,,-99.99,,2013-06-26 03:43:00,
2013-06-25 23:52:00,68.0,67.0,-100.00,NNW,335,6.0,9.0,97,0.00,,,-99.99,,2013-06-26 03:52:00,